Location: Cronhütte
(48.9135°N, 9.6869°E)
Time: 02:06:13
(UTC+00:00)

ALOS - Pass Details

Date: 23 May 2024
Orbit: 672 x 676 km, 98.0° (Epoch: 19 June)

Event Time Altitude Azimuth Distance (km) Brightness Sun altitude
Rises 01:21:31 0° 23° (NNE) 3,039 7.4 -15.2°
Reaches altitude 10° 01:24:03 10° 35° (NE) 2,119 6.2 -15.0°
Maximum altitude 01:28:01 28° 94° (E) 1,273 3.9 -14.7°
Drops below altitude 10° 01:31:57 10° 153° (SSE) 2,102 4.5 -14.3°
Enters shadow 01:32:48 - 158° (SSE) 2,398 4.7 -14.2°
